DW8306 Weather Reports


time (UTC)temp
F
wind
direction
speed
knots
gust
knots
rain 1hr
in
rain 24hr
in
rain mn
in
humidity
%
barometer
mb
20260905204540 97 120 0.9 6.1 0.00 0.00 0.00 56 1010.0
20260905203040 94 64 0.9 7.0 0.00 0.00 0.00 60 1010.3
20260905201539 94 58 3.5 7.0 0.00 0.00 0.00 60 1010.6
20260905200042 94 237 0.9 6.1 0.00 0.00 0.00 64 1010.7
20260905194532 95 57 2.6 9.6 0.00 0.00 0.00 62 1010.9
20260905193032 96 87 4.3 8.7 0.00 0.00 0.00 57 1011.0
20260905191529 96 85 3.5 8.7 0.00 0.00 0.00 56 1011.1
20260905190026 96 38 2.6 6.1 0.00 0.00 0.00 54 1011.2
20260905184532 95 124 0.9 5.2 0.00 0.00 0.00 58 1011.5
20260905183028 96 97 3.5 9.6 0.00 0.00 0.00 55 1011.6
20260905181521 97 83 0.9 5.2 0.00 0.00 0.00 55 1012.0
20260905180017 95 44 2.6 7.0 0.00 0.00 0.00 56 1012.0
20260905174528 93 104 0.9 7.0 0.00 0.00 0.00 62 1012.4
20260905173015 94 10 0.0 4.3 0.00 0.00 0.00 62 1012.7
20260905171511 94 59 1.7 7.0 0.00 0.00 0.00 61 1012.8
20260905170009 94 335 1.7 7.8 0.00 0.00 0.00 59 1012.9
20260905164506 93 167 1.7 7.8 0.00 0.00 0.00 60 1013.1
20260905163007 92 49 2.6 7.0 0.00 0.00 0.00 63 1013.1
20260905161600 92 90 0.9 4.3 0.00 0.00 0.00 67 1013.2
20260905160059 90 268 0.9 3.5 0.00 0.00 0.00 69 1013.2
20260905154556 88 53 0.0 0.0 0.00 0.00 0.00 73 1013.2
20260905153054 87 60 0.0 0.0 0.00 0.00 0.00 76 1013.4
20260905151547 85 266 0.0 0.0 0.00 0.00 0.00 78 1013.3
20260905150044 84 273 0.0 0.0 0.00 0.00 0.00 79 1013.3
20260905144549 84 222 0.0 0.0 0.00 0.00 0.00 81 1013.4
20260905143038 83 276 0.0 0.0 0.00 0.00 0.00 82 1013.3
20260905141601 82 4 0.0 0.0 0.00 0.00 0.00 83 1013.4
20260905140033 81 4 0.0 0.0 0.00 0.00 0.00 86 1013.4
20260905134532 79 4 0.0 0.0 0.00 0.00 0.00 89 1013.5
20260905133040 78 4 0.0 0.0 0.00 0.00 0.00 90 1013.4
20260905131542 78 4 0.0 0.0 0.00 0.00 0.00 92 1013.2
20260905130023 77 4 0.0 0.0 0.00 0.00 0.00 92 1013.1
20260905124520 76 4 0.0 0.0 0.00 0.00 0.00 92 1013.2
20260905123018 76 4 0.0 0.0 0.00 0.00 0.00 92 1013.0
20260905121517 76 4 0.0 0.0 0.00 0.00 0.00 92 1012.9
20260905120016 76 4 0.0 0.0 0.00 0.00 0.00 91 1012.8
20260905114516 76 4 0.0 0.0 0.00 0.00 0.00 91 1012.9
20260905113016 77 4 0.0 0.0 0.00 0.00 0.00 90 1012.7
20260905111512 77 4 0.0 0.0 0.00 0.00 0.00 90 1012.6
20260905110015 77 4 0.0 0.0 0.00 0.00 0.00 90 1012.6
20260905104509 77 4 0.0 0.0 0.00 0.00 0.00 90 1012.5
20260905103008 77 4 0.0 0.0 0.00 0.00 0.00 90 1012.5
20260905101513 77 4 0.0 0.0 0.00 0.00 0.00 90 1012.5
20260905100006 77 4 0.0 0.0 0.00 0.00 0.00 89 1012.3
20260905094506 77 4 0.0 0.0 0.00 0.00 0.00 89 1012.1
20260905093005 77 4 0.0 0.0 0.00 0.00 0.00 88 1012.0
20260905091504 78 4 0.0 0.0 0.00 0.00 0.00 88 1012.0
20260905090003 78 4 0.0 0.0 0.00 0.00 0.00 88 1012.0
20260905084502 78 4 0.0 0.0 0.00 0.00 0.00 88 1012.1
20260905083002 78 4 0.0 0.0 0.00 0.00 0.00 88 1012.2
20260905081603 78 4 0.0 0.0 0.00 0.00 0.00 87 1012.2
20260905080059 78 4 0.0 0.0 0.00 0.00 0.00 87 1012.2
20260905074602 78 4 0.0 0.0 0.00 0.00 0.00 87 1012.2
20260905073105 78 4 0.0 0.0 0.00 0.00 0.00 86 1012.3
20260905071556 78 4 0.0 0.0 0.00 0.00 0.00 86 1012.4
20260905070054 79 4 0.0 0.0 0.00 0.00 0.00 85 1012.5
20260905064608 79 4 0.0 0.0 0.00 0.00 0.00 84 1012.5
20260905063056 79 4 0.0 0.0 0.00 0.00 0.00 83 1012.3
20260905061612 80 4 0.0 0.0 0.00 0.00 0.00 83 1012.3
20260905060049 80 4 0.0 0.0 0.00 0.00 0.00 82 1012.4
20260905054547 80 4 0.0 0.0 0.00 0.00 0.00 82 1012.5
20260905053042 81 4 0.0 0.0 0.00 0.00 0.00 81 1012.6
20260905051549 81 4 0.0 0.0 0.00 0.00 0.00 81 1012.4
20260905050039 81 4 0.0 0.0 0.00 0.00 0.00 80 1012.4
20260905044550 81 39 0.0 0.0 0.00 0.00 0.00 80 1012.5
20260905043034 81 35 0.0 0.0 0.00 0.00 0.00 80 1012.6
20260905041534 82 348 0.0 0.0 0.00 0.00 0.00 80 1012.6
20260905040036 82 347 0.0 0.0 0.00 0.00 0.00 79 1012.7
20260905034540 82 347 0.0 0.0 0.00 0.00 0.00 78 1012.7
20260905033051 82 54 0.0 0.0 0.00 0.00 0.00 78 1012.7
20260905031532 83 277 0.0 0.0 0.00 0.00 0.00 77 1012.7
20260905030031 83 263 0.0 0.0 0.00 0.00 0.00 77 1012.8
20260905024532 83 243 0.0 0.0 0.00 0.00 0.00 77 1012.8
20260905023100 83 243 0.0 0.0 0.00 0.00 0.00 77 1012.5
20260905021530 83 243 0.0 0.0 0.00 0.00 0.00 77 1012.4
20260905020030 84 187 0.0 0.0 0.00 0.00 0.00 77 1011.9
20260905014529 85 187 0.0 0.0 0.00 0.00 0.00 76 1011.8
20260905013029 86 187 0.0 0.9 0.00 0.00 0.00 73 1011.6
20260905011526 87 187 0.0 0.0 0.00 0.00 0.00 71 1011.5
20260905010032 88 187 0.0 0.0 0.00 0.00 0.00 69 1011.4
20260905004525 89 187 0.0 0.0 0.00 0.00 0.00 67 1011.3
20260905003025 90 187 0.0 0.0 0.00 0.00 0.00 64 1011.3
20260905001525 92 187 0.0 0.0 0.00 0.00 0.00 60 1011.4
20260905000024 94 187 0.0 0.0 0.00 0.00 0.00 57 1011.3
20260904234530 96 187 0.0 0.0 0.00 0.00 0.00 56 1011.2
20260904233022 96 170 0.0 0.9 0.00 0.00 0.00 56 1011.1
20260904231522 97 87 0.0 3.5 0.00 0.00 0.00 54 1010.9
20260904230021 98 85 0.0 0.9 0.00 0.00 0.00 54 1010.9
20260904224520 98 245 0.0 0.0 0.00 0.00 0.00 53 1010.8
20260904223020 98 245 0.0 0.9 0.00 0.00 0.00 52 1010.9
20260904221519 97 25 0.0 1.7 0.00 0.00 0.00 52 1010.9
20260904220026 97 271 0.0 0.0 0.00 0.00 0.00 55 1010.9
20260904214517 97 318 0.0 3.5 0.00 0.00 0.00 57 1011.0
20260904213015 98 152 0.0 0.9 0.00 0.00 0.00 54 1011.2
20260904211513 97 23 0.0 4.3 0.00 0.00 0.00 56 1011.3
20260904210015 98 97 0.0 3.5 0.00 0.00 0.00 56 1011.5